Location: Newark
(45.8667°N, 9.7333°E)
Time: 06:21:34
(UTC+00:00)

Transit 4A - Pass Details

Date: 31 January 2020
Orbit: 872 x 973 km, 66.8° (Epoch: 19 February)

Event Time Altitude Azimuth Distance (km) Brightness Sun altitude
Rises 03:27:36 0° 176° (S) 3,545 - -34.4°
Reaches altitude 10° 03:30:29 10° 164° (SSE) 2,590 - -33.9°
Exits shadow 03:31:00 12° 161° (SSE) 2,433 10.1 -33.8°
Maximum altitude 03:35:24 27° 109° (ESE) 1,653 9.6 -33.1°
Drops below altitude 10° 03:40:15 10° 54° (NE) 2,554 10.9 -32.2°
Sets 03:43:03 0° 42° (NE) 3,487 11.6 -31.8°
